Location: ???? ??
(36.0534°N, 43.5630°E)
Time: 22:34:50
(UTC+00:00)

CZ-2C R/B - Pass Details

Date: 18 September 2019
Orbit: 705 x 907 km, 98.1° (Epoch: 14 October)

Event Time Altitude Azimuth Distance (km) Brightness Sun altitude
Exits shadow 16:32:53 20° 64° (ENE) 1,781 4.5 -17.5°
Drops below altitude 10° 16:36:38 10° 20° (NNE) 2,435 5.6 -18.2°
Sets 16:39:37 0° 4° (N) 3,411 6.5 -18.8°
